Regional Weather Roundup
Issued by NWS

Home | Current Version | Previous Version | Text Only | Print | Product List | Glossary Off
Versions: 1 2 3 4 5 6 7 8 9 10 11 12 13 14 15 16 17 18 19 20 21 22 23 24 25 26 27 28 29 30 31 32 33 34 35 36 37 38 39 40 41 42 43 44 45 46 47 48 49 50

000
ASUS43 KTOP 291559
RWRKS

WEATHER ROUNDUP FOR KANSAS
NATIONAL WEATHER SERVICE GOODLAND KS
1100 AM CDT WED OCT 29 2014

NOTE:  "FAIR" INDICATES FEW OR NO CLOUDS BELOW 12,000 FEET WITH NO
SIGNIFICANT WEATHER AND/OR OBSTRUCTIONS TO VISIBILITY.

KSZ001>006-013>018-027>032-041>047-291700-
NORTHWEST KANSAS

CITY           SKY/WX    TMP DP  RH WIND       PRES   REMARKS
GOODLAND       SUNNY     57  34  41 W7        30.16F
HAYS           SUNNY     54  32  43 SE10      30.21S
HILL CITY      SUNNY     50  30  46 SE3       30.19F
RUSSELL        SUNNY     55  33  43 SE10      30.20F
$$

KSZ061>065-074>080-084>089-291700-
SOUTHWEST KANSAS

CITY           SKY/WX    TMP DP  RH WIND       PRES   REMARKS
DODGE CITY     SUNNY     60  35  39 SW15      30.22S
ELKHART          N/A     58  36  44 SW10        N/A
GARDEN CITY    SUNNY     60  36  40 SW18      30.19F
GREAT BEND     SUNNY     57  36  44 S10       30.22F
LIBERAL        SUNNY     57  37  47 SW18      30.24F
$$

KSZ066>073-081>083-090>101-291700-
SOUTHEAST KANSAS

CITY           SKY/WX    TMP DP  RH WIND       PRES   REMARKS
CHANUTE        SUNNY     57  38  48 NE5       30.25S
COFFEYVILLE    SUNNY     57  41  55 E7        30.25F
HUTCHINSON     SUNNY     59  34  39 SE7       30.23F
NEWTON         SUNNY     57  34  41 SE7       30.26S
PARSONS        SUNNY     57  39  51 VRB3      30.27S
WICHITA INTL   SUNNY     58  37  45 S5        30.24S
WICHITA JABRA  SUNNY     58  35  42 SE7       30.23F
WINFIELD       SUNNY     59  40  49 SE3       30.25F
$$

KSZ007>012-019>026-033>040-048>060-102>105-291700-
NORTHEAST KANSAS

CITY           SKY/WX    TMP DP  RH WIND       PRES   REMARKS
CONCORDIA      SUNNY     51  36  56 E8        30.24F
EMPORIA        SUNNY     52  38  58 VRB5      30.26S
LAWRENCE       SUNNY     52  37  56 CALM      30.27F
MANHATTAN      SUNNY     50  39  66 VRB3      30.26F
OLATHE IND     SUNNY     51  35  54 N6        30.27S
OLATHE EXE     SUNNY     54  33  45 N5        30.26R
SALINA         SUNNY     52  35  52 E8        30.25F
TOPEKA BILLARD SUNNY     52  37  56 CALM      30.28S
TOPEKA FORBES  SUNNY     52  36  54 NE5       30.26F
$$



USA.gov is the U.S. government's official web portal to all federal, state and local government web resources and services.